sat.trackr.live / text

‹ back to catalog

ZHONGXING-10

NORAD 37677 · 2011-026A

PAYLOAD ACTIVE UNKNOWN

§ Identity

Operator
Country
PRC
Launch date
2011-06-20
Launch site
XICLF
Launch vehicle
Mass (kg)
RCS (m²)
50.12

Purposes: comms

External: N2YO · Heavens-Above · Gunter

§ Orbital elements

Epoch: 2026-09-13T02:17:03.839712Z

Period
1,436.09 min
Inclination
1.2683°
Eccentricity
0.0002538
Mean motion
1.00272213 rev/d
Perigee alt
35,775.8 km
Apogee alt
35,797.2 km
Semi-major
42,164.6 km
B*
0.0000e+0
RAAN
83.0338°
Arg perigee
66.6855°
Mean anomaly
322.0758°
Rev number
5,588

§ Raw data

ZHONGXING-101 37677U 11026A   26256.09518333 -.00000199  00000+0  00000+0 0  99912 37677   1.2683  83.0338 0002538  66.6855 322.0758  1.00272213 55882

JSON: /api/v1/satellites/37677 · /tle

For live sub-satellite position, see the globe view (requires WebGL).

§ Visibility from observer

Set your observer location to see the next 7 days of passes ≥ 10°. The values pass through the URL so the page stays shareable.

No JS? Fill the form by hand. The geolocation button needs JavaScript.